Dayton, OH

6:45 AM EST on December 11, 2017 (GMT -0500)
Cox-Dayton International

Weather History for KDAY - July, 2014

Change the Weather History Date:

Sunday, July 13, 2014

  Actual Average Record
Temperature  
Mean Temperature 80 °F 74 °F  
Max Temperature 87 °F 84 °F 104 °F (1936)
Min Temperature 72 °F 65 °F 49 °F (1940)
Degree Days  
Heating Degree Days 0 0  
Month to date heating degree days 0 0  
Since 1 June heating degree days 2 22  
Since 1 July heating degree days 0 0  
Cooling Degree Days 15 9  
Month to date cooling degree days 104 117  
Year to date cooling degree days 496 377  
Since 1 June cooling degree days 367 307  
Growing Degree Days 30 (Base 50)    
Moisture  
Dew Point 70 °F    
Average Humidity 75    
Maximum Humidity 93    
Minimum Humidity 57    
Precipitation  
Precipitation T in 0.15 in 2.49 in (1960)
Month to date precipitation 2.26 1.88  
Year to date precipitation 23.87 23.09  
Snow  
Snow 0.00 in 0.00 in 0.00 in ()
Month to date snowfall 0.0 0.0  
Since 1 June snowfall 0.0 0.0  
Since 1 July snowfall 0.0 0.0  
Snow Depth 0.00 in    
Sea Level Pressure  
Sea Level Pressure 29.95 in    
Wind  
Wind Speed 11 mph (WSW)    
Max Wind Speed 18 mph    
Max Gust Speed 24 mph    
Visibility 9 miles    
Events Thunderstorm    
T = Trace of Precipitation, MM = Missing Value Source: NWS Daily Summary

Daily Weather History Graph

Daily Weather History Graph

Search for Another Location

Airport or City:

Trip Planner

Search our weather history database for the weather conditions in past years. The results will help you decide how hot, cold, wet, or windy it might be!

Date:

Astronomy

Jul. 13, 2014 Rise Set
Actual Time 6:19 AM EDT 9:05 PM EDT
Civil Twilight 5:47 AM EDT 9:37 PM EDT
Nautical Twilight 5:07 AM EDT 10:17 PM EDT
Astronomical Twilight 4:21 AM EDT 11:02 PM EDT
Moon 9:53 PM EDT (7/13) 7:48 AM EDT (7/13)
Length of Visible Light 15h 49m
Length of Day
14h 45m
Full, 98% of the Moon is Illuminated
Jul 13
Full
Jul 18
Last Quarter
Jul 26
New
Aug 3
First Quarter
Aug 10
Full

Hourly Weather History & Observations

Time (EDT) Temp. Heat Index Dew Point Humidity Pressure Visibility Wind Dir Wind Speed Gust Speed Precip Events Conditions
12:56 AM 78.1 °F - 66.9 °F 68% 30.01 in 7.0 mi SSW 11.5 mph - N/A   Mostly Cloudy
1:56 AM 77.0 °F - 68.0 °F 74% 30.00 in 7.0 mi SSW 12.7 mph - N/A   Mostly Cloudy
2:56 AM 75.9 °F - 68.0 °F 76% 29.98 in 8.0 mi SSW 10.4 mph - N/A   Overcast
3:56 AM 75.9 °F - 68.0 °F 76% 29.96 in 8.0 mi SSW 10.4 mph - N/A   Overcast
4:56 AM 75.9 °F - 68.0 °F 76% 29.96 in 8.0 mi SSW 10.4 mph - N/A   Mostly Cloudy
5:56 AM 75.9 °F - 68.0 °F 76% 29.96 in 8.0 mi SSW 12.7 mph - N/A   Overcast
6:56 AM 75.9 °F - 69.1 °F 79% 29.95 in 7.0 mi SSW 12.7 mph - N/A   Overcast
7:56 AM 75.9 °F - 69.1 °F 79% 29.95 in 7.0 mi SSW 12.7 mph - N/A   Overcast
8:56 AM 78.1 °F - 70.0 °F 76% 29.96 in 8.0 mi SW 12.7 mph - N/A   Overcast
9:56 AM 79.0 °F - 72.0 °F 79% 29.96 in 8.0 mi WSW 8.1 mph - N/A   Mostly Cloudy
10:15 AM 80.6 °F 84.6 °F 71.6 °F 74% 29.98 in 9.0 mi WSW 12.7 mph - N/A   Mostly Cloudy
10:56 AM 80.1 °F 83.8 °F 72.0 °F 76% 29.95 in 9.0 mi West 17.3 mph - N/A   Overcast
11:31 AM 82.4 °F 88.2 °F 73.4 °F 74% 29.98 in 9.0 mi WSW 13.8 mph - N/A   Mostly Cloudy
11:56 AM 81.0 °F 85.2 °F 72.0 °F 74% 29.96 in 9.0 mi West 12.7 mph - N/A   Overcast
12:35 PM 82.4 °F 86.3 °F 69.8 °F 66% 29.99 in 10.0 mi West 16.1 mph 21.9 mph N/A   Mostly Cloudy
12:56 PM 82.9 °F 86.5 °F 69.1 °F 63% 29.96 in 10.0 mi West 17.3 mph - N/A   Mostly Cloudy
1:56 PM 86.0 °F 90.7 °F 70.0 °F 59% 29.94 in 10.0 mi West 15.0 mph 24.2 mph N/A   Scattered Clouds
2:56 PM 84.0 °F 88.4 °F 70.0 °F 63% 29.93 in 10.0 mi West 11.5 mph - N/A   Mostly Cloudy
3:56 PM 86.0 °F 90.7 °F 70.0 °F 59% 29.91 in 10.0 mi West 12.7 mph - N/A   Mostly Cloudy
4:56 PM 84.0 °F 88.4 °F 70.0 °F 63% 29.91 in 10.0 mi West 11.5 mph 20.7 mph N/A   Mostly Cloudy
5:56 PM 82.0 °F 85.9 °F 70.0 °F 67% 29.90 in 10.0 mi WNW 8.1 mph - 0.00 in Thunderstorm Thunderstorm
6:35 PM 82.4 °F 88.2 °F 73.4 °F 74% 29.93 in 10.0 mi WSW 10.4 mph - 0.00 in   Mostly Cloudy
6:56 PM 82.0 °F 86.3 °F 71.1 °F 69% 29.90 in 10.0 mi West 9.2 mph - 0.00 in   Mostly Cloudy
7:56 PM 82.0 °F 86.3 °F 71.1 °F 69% 29.91 in 10.0 mi SW 4.6 mph - N/A   Mostly Cloudy
8:56 PM 75.2 °F - 69.8 °F 83% 29.95 in 10.0 mi SSW 9.2 mph - N/A   Mostly Cloudy
9:56 PM 73.9 °F - 70.0 °F 87% 29.93 in 10.0 mi SW 5.8 mph - N/A   Scattered Clouds
10:56 PM 72.0 °F - 69.1 °F 91% 29.94 in 10.0 mi WSW 5.8 mph - N/A   Scattered Clouds
11:56 PM 73.0 °F - 70.0 °F 90% 29.93 in 9.0 mi SW 6.9 mph - N/A   Scattered Clouds